Location: Chippewa Lake
(41.0698°N, 81.9010°W)
Time: 05:49:32
(UTC+00:00)

Daily predictions for brighter satellites

Satellite Brightness Start Highest point End
(mag) Time Altitude Azimuth Time Altitude Azimuth Time Altitude Azimuth
CSL-04 Rocket 3.9 00:53:03 10° S 00:58:19 76° WSW 01:03:41 10° NNW
Cosmos 2221 2.5 00:55:14 10° S 00:59:30 69° E 01:03:49 10° NNE
Cosmos 1844 4.4 00:55:24 10° SSE 01:00:23 31° ESE 01:05:20 10° NE
Cosmos 1500 Rocket 4.2 00:57:05 10° N 01:01:11 37° ENE 01:05:13 10° SE
Cosmos 1862 3.3 00:59:36 10° N 01:03:36 64° E 01:07:35 10° SSE
ATLAS 5 CENTAUR R/B 3.9 00:59:53 10° N 01:04:05 21° NE 01:08:45 10° E
OBJECT-B 1.0 01:02:41 10° SSE 01:05:50 52° ENE 01:09:00 10° N
BREEZE-M DEB (TANK) 1.6 01:04:51 10° WNW 01:07:06 79° NNE 01:09:58 10° ESE
FALCON 9 DEB 3.7 01:05:02 10° NW 01:07:56 39° NNE 01:10:49 10° ESE
MetOp-A 4.2 01:05:01 10° SSE 01:10:23 88° WSW 01:15:46 10° NNW
Cosmos 1437 Rocket 3.3 01:12:14 10° SSE 01:15:46 36° E 01:19:23 10° NNE
IRIS 3.5 01:16:27 10° W 01:18:46 90° NNW 01:21:32 10° E
S3M 4.4 01:17:58 10° SSE 01:23:57 45° E 01:29:57 10° NNE
Resurs 01 Rocket 2.6 01:22:22 12° SE 01:25:58 31° ENE 01:29:55 10° N
Cosmos 2208 Rocket 4.3 01:23:20 10° NNW 01:28:45 75° WSW 01:34:11 10° S
Sich 1 3.9 01:27:06 10° NNE 01:30:59 31° ENE 01:33:57 15° SE
DELTA 2 R/B (1) 3.6 01:33:55 10° W 01:39:28 74° S 01:44:07 15° ESE
USA 290 3.8 01:37:25 10° N 01:40:03 22° ENE 01:41:20 18° E
SJ-6B 3.6 01:36:48 10° S 01:40:32 51° W 01:44:24 10° NNW
Cosmos 1553 Rocket 4.0 01:36:16 10° S 01:42:23 89° W 01:48:38 10° N
FALCON 9 DEB 2.7 01:39:22 10° NW 01:42:25 88° SW 01:44:06 24° SE
Meteor 1-20 Rocket 4.5 01:44:16 10° N 01:49:44 51° ENE 01:53:36 19° SSE
Cosmos 1151 Rocket 4.0 01:48:25 20° SE 01:50:20 29° E 01:54:06 10° NNE
Cosmos 1606 3.6 01:49:58 10° SSW 01:53:37 49° W 01:57:18 10° N
X-37B 1.8 01:51:33 10° WNW 01:54:35 39° N 01:56:59 14° ENE
Cosmos 1503 Rocket 4.0 01:49:49 10° S 01:54:51 57° ESE 01:59:57 10° NNE
Terra 3.8 01:59:01 11° E 02:00:38 13° ENE 02:02:52 10° NNE
CZ-4C R/B 4.1 01:54:35 10° NNW 02:00:50 31° NE 02:06:50 14° E
SL-4 R/B 2.3 02:01:02 10° WNW 02:05:27 70° SW 02:07:49 28° SE
Cosmos 2084 3.9 02:06:35 28° SSE 02:07:47 34° ESE 02:11:36 10° NE
Ariane Rocket 3.7 02:03:24 10° S 02:08:17 51° W 02:13:14 10° NNW
CZ-2C R/B 3.7 02:04:48 10° NNE 02:09:15 60° ESE 02:12:21 19° S
Intercosmos 25 Rocket 4.4 02:03:45 10° NNW 02:09:49 59° W 02:13:15 13° S
Cosmos 2278 Rocket 3.2 02:10:58 24° ESE 02:11:38 25° ESE 02:16:07 10° NE
Cosmos 1805 Rocket 3.9 02:08:41 10° NNW 02:13:00 65° W 02:16:11 17° S
ARIANE 5 R/B 3.5 02:13:17 28° ESE 02:14:32 33° ENE 02:18:26 10° N
Cosmos 1812 4.2 02:16:36 22° ENE 02:16:36 22° ENE 02:19:10 10° NE
Meteor 1-25 Rocket 4.3 02:14:19 10° N 02:20:11 89° E 02:23:59 23° S
SPOT 1/Viking Rocket 3.6 02:18:39 30° SE 02:21:11 63° ENE 02:26:20 10° N
Cosmos 1633 Rocket 3.2 02:17:00 10° N 02:21:19 54° E 02:22:40 38° SE
Cosmos 1844 Rocket 3.8 02:17:51 10° SW 02:23:10 44° WNW 02:28:30 10° NNE
MetOp-B 4.1 02:22:18 27° SSE 02:25:21 87° ENE 02:30:44 10° NNW
Cosmos 1354 Rocket 4.0 02:21:03 10° SSW 02:26:16 86° WNW 02:31:33 10° NNE
Cosmos 1328 Rocket 3.5 02:27:50 38° SSE 02:29:20 63° E 02:33:44 10° NNE
Landsat 7 4.0 02:28:06 27° S 02:30:40 71° WSW 02:35:26 10° NNW
Cosmos 1470 Rocket 4.2 02:26:32 10° N 02:30:44 39° ENE 02:31:25 37° E
IGS 5A 4.0 02:30:17 26° SSW 02:32:23 54° W 02:36:27 10° NNW
SPOT 3 Rocket 4.0 02:31:37 22° S 02:34:52 59° W 02:39:58 10° NNW
CARTOSAT-1 3.8 02:35:26 45° ESE 02:36:14 52° ENE 02:40:27 10° N
Cosmos 1666 4.3 02:34:20 10° NNE 02:36:44 21° ENE 02:36:44 21° ENE
Cosmos 1242 Rocket 3.9 02:39:39 15° SW 02:42:14 37° WNW 02:45:35 10° N
Cosmos 1933 Rocket 4.3 02:41:16 10° N 02:45:16 35° ENE 02:45:16 35° ENE
CRYOSAT 2 4.5 02:44:48 34° S 02:46:56 73° W 02:51:50 10° N
Meteor 1-5 Rocket 4.4 02:41:52 10° N 02:47:06 48° ENE 02:48:10 42° ESE
Cosmos 1666 Rocket 3.9 02:42:48 10° NNW 02:47:09 61° W 02:48:36 38° SSW
ATLAS 5 CENTAUR R/B 2.4 02:43:31 10° NW 02:49:20 87° SW 02:51:48 41° SSE
Cosmos 2184 Rocket 4.4 02:48:19 10° N 02:54:16 45° ENE 02:55:40 39° ESE
Cosmos 1709 Rocket 4.2 02:49:14 10° NNW 02:55:16 65° W 02:58:29 29° SSW
Cosmos 1833 Rocket 3.1 02:54:02 10° NNW 02:59:33 50° ENE 03:00:47 43° E
BREEZE-M DEB (TANK) 3.3 02:54:23 10° WNW 03:00:05 47° SW 03:00:05 47° SW
BREEZE-M DEB (TANK) 4.1 02:59:07 10° NNW 03:00:07 14° N 03:00:07 14° N
Cosmos 2074 Rocket 4.2 02:55:52 10° N 03:02:03 54° E 03:03:29 45° ESE
Iridium 4 Rocket 3.8 03:01:02 51° SE 03:02:15 64° E 03:08:04 10° N
Resurs 01 Rocket 3.6 02:59:56 15° SW 03:02:28 24° W 03:06:04 10° NW
Cosmos 1538 Rocket 4.4 02:59:01 10° N 03:04:13 49° ENE 03:04:59 46° E
Meteor 1-14 Rocket 4.3 02:58:50 10° NNW 03:04:44 82° W 03:06:32 46° S
SJ 16-02 2.0 03:06:01 42° ENE 03:06:01 42° ENE 03:09:22 10° NNE
Nadezhda 1 Rocket 4.4 03:05:38 40° ESE 03:06:21 42° E 03:12:11 10° NNE
Cosmos 1500 3.4 03:03:09 10° NNW 03:06:37 66° WNW 03:06:37 66° WNW
Cosmos 1782 4.3 03:05:26 22° SW 03:07:15 34° WNW 03:10:55 10° N
Cosmos 2228 Rocket 4.1 03:09:56 33° ENE 03:09:56 33° ENE 03:13:00 10° NNE
NOSS 3-3 (A) 4.4 03:06:38 10° SW 03:12:14 59° NW 03:18:38 10° NNE
NOSS 3-3 (C) 4.4 03:06:43 10° SW 03:12:21 59° NW 03:18:45 10° NNE
Spot 2 Rocket 4.0 03:14:56 42° SW 03:16:11 53° W 03:21:08 10° NNW
Cosmos 773 Rocket 4.1 03:11:23 10° NNW 03:16:39 68° WSW 03:17:32 57° SSW
ATLAS 2AS CENTAUR R/B 4.2 03:12:40 10° NNW 03:19:00 29° NE 03:22:46 19° E
Cosmos 1271 Rocket 3.6 03:20:43 44° NNE 03:20:43 44° NNE 03:23:35 10° NNE
H-2A R/B 3.7 03:20:04 10° NNE 03:23:38 63° NNE 03:23:38 63° NNE
DELTA 2 R/B (1) 4.3 03:20:26 10° W 03:24:52 38° SW 03:24:52 38° SW
Meteor 1-27 Rocket 3.9 03:25:47 54° E 03:25:51 54° E 03:31:34 10° NNE
SL-24 DEB 4.5 03:27:16 59° NE 03:27:16 59° NE 03:31:19 10° N
SPOT 5 3.2 03:29:45 57° SW 03:30:17 61° W 03:35:27 10° NNW
Meteor 2-6 Rocket 4.4 03:29:54 46° SW 03:31:20 63° W 03:36:47 10° N
ERS-1 Rocket 3.2 03:30:49 55° SW 03:31:20 58° W 03:36:18 10° NNW
X-37B 3.2 03:28:13 10° WNW 03:29:16 19° WNW 03:29:16 19° WNW
COSMOS 2406 3.0 03:25:45 10° NNW 03:31:27 89° WSW 03:31:59 75° SSE
Cosmos 2082 Rocket 2.6 03:27:57 10° NNW 03:33:25 48° ENE 03:33:51 47° ENE
USA 307 4.3 03:31:38 10° NW 03:35:27 31° NNE 03:35:47 30° NE
Terra 1.9 03:37:53 71° W 03:37:53 71° W 03:42:32 10° NNW
Milstar 3 4.1 03:27:22 10° WSW 03:36:55 35° SSW 03:36:55 35° SSW
Cosmos 1536 4.1 03:44:03 10° N 03:46:37 36° NNE 03:46:37 36° NNE
USA 308 4.2 03:45:03 10° NW 03:48:46 36° NNE 03:48:46 36° NNE
CZ-4C R/B 3.0 03:42:37 10° NW 03:50:06 77° WSW 03:52:00 57° S
ARIANE 5 R/B 4.5 03:50:49 21° W 03:51:02 21° W 03:54:21 10° NW
Meteor 1-11 Rocket 3.7 03:46:23 10° N 03:52:24 85° W 03:52:44 80° SSW
Cosmos 1869 Rocket 4.3 03:49:21 10° N 03:52:32 48° N 03:52:32 48° N
Cosmos 2278 Rocket 3.1 03:52:43 27° WSW 03:55:22 46° WNW 04:00:49 10° NNE
Cosmos 1898 Rocket 4.3 03:58:21 40° NE 03:58:21 40° NE 04:02:04 10° NNE
Cosmos 923 Rocket 4.3 03:52:06 10° NNW 03:56:54 61° NE 03:56:54 61° NE
Cosmos 1295 Rocket 4.3 03:52:32 10° N 03:58:56 83° E 03:59:20 78° SE
Cosmos 2369 Rocket 4.2 04:08:44 16° ENE 04:08:44 16° ENE 04:10:23 10° NE
ALOS 2 4.5 04:08:14 22° NE 04:08:14 22° NE 04:10:44 10° NNE
Cosmos 1943 Rocket 3.2 04:16:21 35° ENE 04:16:21 35° ENE 04:19:57 10° NE
Cosmos 990 Rocket 4.3 04:20:03 62° N 04:20:03 62° N 04:24:30 10° NNE
SL-8 Rocket 4.1 04:19:18 10° N 04:25:28 63° ENE 04:25:28 63° ENE
ATLAS 5 CENTAUR R/B 4.4 04:30:01 10° WNW 04:33:20 16° WSW 04:33:20 16° WSW
Cosmos 1238 Rocket 3.9 04:27:22 10° N 04:33:04 69° NNE 04:33:04 69° NNE
Cosmos 2112 Rocket 4.5 04:30:47 10° NNW 04:35:09 60° NNW 04:35:09 60° NNW
SeaSat 1 4.4 04:35:52 10° NE 04:37:38 20° ENE 04:37:38 20° ENE
Cosmos 1833 Rocket 4.4 04:38:47 10° NW 04:42:29 22° W 04:42:29 22° W
SJ 16-02 3.8 04:42:57 15° WNW 04:43:56 16° WNW 04:46:40 10° NNW
Cosmos 2297 4.0 04:51:30 62° NW 04:51:30 62° NW 04:56:41 10° NNE
Cosmos 864 Rocket 4.5 04:48:04 10° N 04:53:45 75° NNE 04:53:45 75° NNE
NOSS 3-4 (A) 4.1 04:49:56 10° NW 04:56:43 55° WSW 04:56:43 55° WSW
NOSS 3-4 (C) 4.1 04:50:03 10° NW 04:56:50 55° WSW 04:56:50 55° WSW
Cosmos 1959 Rocket 4.5 04:50:52 10° N 04:56:38 77° N 04:56:38 77° N
Cosmos 1937 Rocket 4.3 05:04:38 46° NNW 05:04:38 46° NNW 05:08:44 10° N
Cosmos 2181 Rocket 4.2 05:06:37 61° WNW 05:06:37 61° WNW 05:12:28 10° N
USA 215 3.8 05:04:14 38° E 05:06:31 54° NNE 05:12:51 10° NW
ATLAS 2AS CENTAUR R/B 2.7 05:03:25 10° NW 05:10:10 70° W 05:10:10 70° W
Cosmos 1818 4.1 05:05:39 10° NNW 05:10:07 55° N 05:10:07 55° N
Thor Agena Rocket 4.4 05:06:22 10° NNE 05:10:10 47° NE 05:10:10 47° NE
Cosmos 2082 Rocket 4.0 05:12:47 10° NW 05:15:41 21° W 05:15:41 21° W
Cosmos 2366 rocket 4.4 05:17:24 10° NNW 05:22:49 55° WNW 05:22:49 55° WNW
Cosmos 1821 Rocket 4.2 05:18:42 10° N 05:24:50 65° ENE 05:24:50 65° ENE
Gbstr 26 Del rocket 4.5 05:21:45 10° NW 05:28:32 54° NNE 05:29:50 45° ENE
Lacrosse 5 4.4 05:47:46 12° E 05:47:46 12° E 05:48:14 10° ENE
USA 281 4.4 05:43:35 24° E 05:46:31 35° NE 05:52:20 10° N
Cosmos 2369 Rocket 2.7 05:50:29 52° NW 05:50:29 52° NW 05:55:27 10° NNE
ATLAS CENTAUR R/B 3.9 05:57:32 15° NE 05:57:32 15° NE 05:58:18 10° NE
Cosmos 1943 Rocket 3.7 05:57:51 26° WNW 05:58:32 26° NW 06:03:15 10° N
Cosmos 1867 4.0 06:01:29 59° N 06:01:29 59° N 06:05:59 10° NNE
Nadezhda 3 Rocket 4.1 06:01:01 64° WNW 06:01:01 64° WNW 06:06:53 10° N
ISS -0.5 06:15:11 14° NNE 06:15:11 14° NNE 06:15:52 10° NE
Cosmos 1066 Rocket 4.4 06:14:24 68° NNW 06:14:24 68° NNW 06:19:30 10° N
Cosmos 1125 Rocket 4.0 06:16:53 54° NNW 06:16:53 54° NNW 06:21:08 10° NNE
Cosmos 1607 4.2 06:15:46 61° WNW 06:16:08 62° NW 06:22:35 10° NNE
Meteor 1-23 Rocket 4.3 06:17:24 74° NNE 06:17:24 74° NNE 06:22:44 10° N
SeaSat 1 3.6 06:13:15 10° N 06:17:24 35° NW 06:17:24 35° NW
Gblst 52 Del rocket 4.4 06:15:14 10° NW 06:21:41 75° NNE 06:22:02 72° ENE
Cosmos 1656 Rocket 4.3 06:24:27 45° NW 06:24:27 45° NW 06:29:25 10° NNE
USA 81 4.4 06:20:21 10° N 06:25:02 63° NE 06:25:02 63° NE
Cosmos 1605 Rocket 4.0 06:24:07 10° N 06:30:22 74° E 06:30:46 72° ESE
Okean 2 Rocket 4.3 06:27:09 10° N 06:29:53 38° N 06:29:53 38° N
CZ-2D R/B 2.8 06:34:02 10° NNE 06:39:13 45° E 06:39:13 45° E
MOZ.5/SAFIR/RUBIN 5/SL-8 4.3 06:41:05 55° NNE 06:41:05 55° NNE 06:44:51 10° N
Cosmos 2344 4.4 06:34:01 10° NW 06:43:47 87° WSW 06:57:33 10° SSE
USA 215 4.0 06:51:32 37° W 06:51:32 37° W 06:55:49 10° WNW
Meteor 2-10 4.3 06:46:39 10° N 06:52:02 62° ENE 06:52:21 60° E
Meteor 1-22 Rocket 4.2 06:52:19 10° NNW 06:58:19 83° W 06:58:40 78° SSW
ADEOS II 3.4 06:53:44 10° NE 06:58:20 30° E 06:59:19 28° ESE
Cosmos 1269 Rocket 4.0 06:54:02 10° NNW 06:59:05 81° NNW 06:59:05 81° NNW
Cosmos 1707 4.1 07:02:58 36° NE 07:02:58 36° NE 07:05:39 10° NNE
Resurs 1-4 Rocket 2.0 06:57:08 10° NNE 07:02:24 75° ESE 07:02:30 75° ESE
Okean 2 4.1 07:11:18 50° N 07:11:18 50° N 07:14:29 10° N
SL-16 R/B 2.5 07:09:48 51° SSE 07:11:32 84° ENE 07:17:50 10° NNW
Cosmos 1726 3.5 07:09:12 10° N 07:11:39 38° NNE 07:11:39 38° NNE
Cosmos 1975 Rocket 3.8 07:19:39 45° ESE 07:19:51 45° E 07:24:01 10° NNE
Cosmos 44 Rocket 3.5 07:19:26 10° NW 07:24:00 61° WNW 07:24:00 61° WNW
Helios 1B rocket 2.9 07:21:47 10° N 07:25:15 55° NNW 07:25:15 55° NNW
Cosmos 1626 4.5 07:25:08 16° ESE 07:26:01 17° E 07:28:28 10° NE
Cosmos 1656 4.0 07:25:27 45° SE 07:26:29 52° ESE 07:31:47 10° NNE
Cosmos 1758 3.6 07:22:55 10° N 07:26:37 67° NNE 07:26:37 67° NNE
Lacrosse 5 1.8 07:26:57 71° W 07:27:19 75° NW 07:32:26 10° NE
COSMOS 2455 3.5 07:21:58 10° NNW 07:27:51 53° NE 07:33:42 10° SE
Cosmos 1727 Rocket 4.1 07:27:35 52° WSW 07:28:38 59° W 07:34:54 10° N
USA 281 3.4 07:30:26 46° WSW 07:30:48 47° WSW 07:37:07 10° NW
CZ-3B R/B 4.4 07:16:40 24° SW 07:31:57 74° NW 07:37:43 10° NE
Cosmos 1000 Rocket 4.4 07:30:36 50° S 07:32:25 88° E 07:38:44 10° N
UNK 3.8 07:33:19 63° WNW 07:33:19 63° WNW 07:37:32 10° NNW
ATLAS CENTAUR R/B 3.6 07:33:39 13° NW 07:33:54 13° NW 07:35:46 10° N
Cosmos 1315 Rocket 3.1 07:31:40 10° N 07:35:37 61° E 07:35:47 60° E
Cosmos 1400 Rocket 4.3 07:31:56 10° NNW 07:34:12 27° NW 07:34:12 27° NW
NOSS 2-1 (C) 4.3 07:31:00 10° NW 07:36:18 69° WSW 07:42:49 14° SSE
Meteor 1-28 Rocket 4.4 07:39:04 30° ESE 07:40:08 38° ENE 07:43:34 10° N
ARIANE 5 R/B 4.5 07:37:38 10° NE 07:41:38 22° E 07:45:20 11° SE
Lacrosse 4 Rocket 3.8 07:40:00 14° SE 07:41:39 17° ESE 07:44:27 10° ENE
Cosmos 1470 4.0 07:38:07 10° NNW 07:40:31 31° NW 07:40:31 31° NW
NOSS 2-1 (D) 4.4 07:37:47 10° NW 07:43:06 62° WSW 07:48:43 18° SSE
BREEZE-M DEB (TANK) 3.0 07:42:46 55° SSW 07:43:53 77° SE 07:56:18 10° ENE
Okean 1 Rocket 4.1 07:41:02 10° NNW 07:44:09 33° WNW 07:44:09 33° WNW
ARGOS Delta rocket 3.7 07:43:28 10° N 07:48:03 80° WNW 07:48:46 63° SW
Cosmos 371 Rocket 3.4 07:47:14 54° S 07:48:15 72° ESE 07:53:07 10° NNE
BREEZE-M R/B 4.0 07:48:47 42° W 07:50:09 52° SW 07:59:13 10° SE
ISS -0.7 07:48:55 10° NW 07:50:45 14° N 07:52:34 10° NNE
Tianhe-1 2.9 07:52:52 26° E 07:52:52 26° E 07:54:25 10° E
AQUA 3.9 07:47:02 10° N 07:51:43 57° WNW 07:52:19 52° WSW
Landsat 4 4.2 07:52:17 10° N 07:55:36 46° NW 07:55:36 46° NW
Cosmos 1025 Rocket 3.1 08:02:13 43° SSE 08:03:32 70° E 08:07:52 10° NNE
Cosmos 1697 Rocket 3.2 08:00:52 29° S 08:03:33 54° ESE 08:09:00 10° NNE
Cosmos 1725 Rocket 4.0 07:58:16 10° N 08:04:34 83° E 08:09:23 18° S
NPP 4.4 08:00:57 10° N 08:05:53 38° WNW 08:07:16 32° W
USA 276 2.8 08:06:30 46° NNW 08:06:30 46° NNW 08:09:33 10° NE
CBERS-1 3.9 08:02:14 10° NNE 08:07:22 87° ESE 08:09:29 37° SSW
Timation 2 Rocket 4.0 08:03:20 10° NNW 08:09:20 77° ENE 08:15:22 10° SSE
Cosmos 2061 Rocket 3.9 08:03:19 10° N 08:09:39 82° W 08:14:10 21° S
Meteor 1-29 4.3 08:10:01 10° NNW 08:12:29 26° WNW 08:12:29 26° WNW
Cosmos 1980 Rocket 3.5 08:09:43 14° SSE 08:13:59 33° ESE 08:19:01 10° NE
Cosmos 1544 Rocket 3.5 08:13:03 10° N 08:17:27 87° E 08:20:00 25° S
GP-B 3.1 08:14:05 10° N 08:18:33 83° E 08:20:51 28° S
CZ-2D R/B 3.5 08:14:40 10° NNW 08:18:57 24° WNW 08:20:32 21° W
Cosmos 2233 Rocket 4.2 08:13:39 10° N 08:19:53 71° E 08:26:00 10° SSE
Cosmos 1459 Rocket 4.4 08:14:19 10° NNW 08:20:09 42° W 08:22:30 30° SW
CZ-4B R/B 4.0 08:16:18 10° NNE 08:21:11 56° ESE 08:24:52 18° S
Cosmos 1674 3.1 08:21:32 42° W 08:21:55 43° W 08:25:36 10° N
Cosmos 2369 4.2 08:18:44 22° S 08:22:20 58° ESE 08:27:58 10° NNE
Cosmos 2016 Rocket 4.0 08:16:16 10° NNW 08:22:25 61° W 08:26:17 23° SSW
Cosmos 2227 Rocket 2.1 08:17:52 10° NNW 08:23:33 89° E 08:29:12 10° SSE
Cosmos 2297 Rocket 2.1 08:21:30 10° NNW 08:27:07 65° WSW 08:32:42 10° S
Cosmos 1455 Rocket 3.5 08:24:07 10° NNW 08:28:11 41° W 08:29:09 36° SW
IDEFIX/ARIANE 42P 2.5 08:23:01 10° N 08:28:18 80° WNW 08:31:24 25° SSW
Cosmos 1953 2.7 08:26:34 10° NNW 08:30:21 43° W 08:31:09 38° SW
Cosmos 1536 Rocket 3.5 08:30:25 24° S 08:33:01 83° E 08:37:27 10° N
Cosmos 2056 Rocket 4.0 08:29:22 17° S 08:33:07 56° ESE 08:38:06 10° NNE
Cosmos 2082 4.3 08:29:56 10° NNW 08:35:34 59° ENE 08:41:11 10° SE
ADEOS II 3.0 08:33:19 10° N 08:37:59 33° WNW 08:40:16 23° WSW
Cosmos 2251 Rocket 3.9 08:36:08 10° NW 08:41:00 41° WSW 08:44:15 19° SSW
Resurs 1-4 Rocket 4.0 08:38:43 10° NNW 08:41:34 15° WNW 08:43:35 12° W
IRS-1D 4.4 08:39:21 10° N 08:44:11 36° WNW 08:46:54 22° WSW
Cosmos 1300 3.1 08:40:27 10° N 08:44:15 65° E 08:48:02 10° SSE
Cosmos 1371 Rocket 4.0 08:41:26 19° SSW 08:45:17 83° ESE 08:50:31 10° NNE
Cosmos 2228 4.5 08:44:30 10° N 08:48:30 38° ENE 08:52:29 10° SSE
OAO 3 Rocket 4.4 08:48:24 21° SSW 08:48:37 21° SSW 08:52:17 10° SSE
COSMOS 2441 4.3 08:44:38 10° N 08:49:33 82° WNW 08:53:33 16° SSW
Meteor 2-5 Rocket 3.7 08:47:04 12° S 08:52:27 89° WNW 08:58:09 10° N
Meteor 1-24 Rocket 3.9 08:47:25 10° S 08:53:05 74° E 08:58:34 10° NNE
CZ-2C R/B 4.2 08:49:30 10° NNE 08:53:14 37° E 08:56:58 10° SSE
ADEOS Rocket 3.8 08:47:29 11° SSW 08:54:02 46° W 09:01:23 10° NNW
SL-16 R/B 4.1 08:54:54 14° W 08:55:49 15° W 08:59:08 10° WNW
CZ-4C R/B 4.3 08:54:01 21° SW 08:56:08 32° W 09:00:01 10° NNW
Cosmos 1908 4.4 08:54:27 10° NW 08:57:37 24° W 08:58:41 21° WSW
SL-08 R/B 3.2 08:53:49 10° S 08:58:34 76° WSW 09:03:15 10° NNW
MSX 4.0 08:54:33 10° N 09:00:15 61° WNW 09:05:13 14° SSW
Cosmos 1626 3.3 08:59:39 21° WSW 09:01:00 27° WNW 09:04:10 10° NNW
Cosmos 2219 3.7 08:58:09 10° NW 09:03:21 37° WSW 09:08:33 10° S
Cosmos 304 Rocket 4.5 09:02:03 19° SW 09:05:02 38° WNW 09:09:32 10° N
Cosmos 1023 Rocket 4.4 09:00:22 10° NNW 09:05:34 71° WSW 09:10:47 10° S
Lacrosse 5 3.8 09:07:14 10° WNW 09:11:03 21° NNW 09:14:53 10° NNE
COSMOS 2455 3.8 09:08:38 10° NW 09:13:23 25° WSW 09:18:08 10° SSW
Cosmos 2322 Rocket 4.5 09:09:18 10° SSE 09:13:30 22° E 09:17:44 10° NE
CZ-2C R/B 2.0 09:14:12 17° SW 09:15:30 22° S 09:18:06 10° SE
SL-14 R/B 4.4 09:16:47 15° SW 09:19:13 27° WNW 09:22:35 10° NNW
Lacrosse 4 Rocket 1.9 09:16:18 14° SW 09:19:55 50° WNW 09:24:15 10° NNE
ARIANE 5 R/B 3.0 09:16:02 10° N 09:20:54 43° WNW 09:25:40 10° SW
Cosmos 1140 Rocket 3.6 09:16:03 10° NNW 09:21:06 52° WSW 09:26:09 10° S
ALOS 3.3 09:17:01 10° NNE 09:21:31 46° E 09:26:00 10° S
Cosmos 1190 Rocket 4.1 09:22:17 10° NNW 09:27:22 54° WSW 09:32:26 10° S
Tianhe-1 1.9 09:24:47 10° W 09:27:35 30° SSW 09:30:23 10° SE
Cosmos 2263 Rocket 3.2 09:22:18 10° NNW 09:27:49 52° ENE 09:33:20 10° SE
Cosmos 1340 3.1 09:24:26 10° SSW 09:27:59 42° WNW 09:31:35 10° N
APEX 4.1 09:23:56 10° NW 09:28:18 49° WSW 09:33:42 10° S
ISS -1.1 09:25:52 10° NNW 09:28:31 21° NNE 09:31:11 10° ENE
Aureole 2 Rocket 3.6 09:30:07 10° N 09:32:39 35° ENE 09:35:10 10° SE
PSLV R/B 3.9 09:28:39 10° NNE 09:32:49 66° ESE 09:36:59 10° S
Cosmos 1420 Rocket 4.1 09:28:58 10° SSW 09:34:08 65° WNW 09:39:19 10° NNE
USA 129 2.8 09:32:28 10° SSW 09:34:17 21° WSW 09:35:45 10° NW
Cosmos 1892 Rocket 3.6 09:32:04 10° S 09:36:24 82° E 09:40:45 10° N
